Back to catalog

COSMOS 249 DEB

AliveLEO
NORAD 3794·DEBRIS·🇷🇺 Russia

Launched Oct 20, 1968 from Baikonur Cosmodrome

Loading…

Next Passes (next 24 hours)

TLE

FreshSource: Space-Track

Epoch: Sep 14, 2026, 11:13 UTC

1 03794U 68091BB  26257.46745193  .00000912  00000-0  88103-3 0  9993
2 03794  62.2709  66.2798 0559214 271.3255  82.3785 13.31104051721967

Track COSMOS 249 DEB in real time with AllMySat

Download on the App Store